Location: Ladrillo (historical)
(32.8195°N, 117.2231°W)
Time: 03:04:36
(UTC+00:00)

FENGYUN 3A - Pass Details

Date: 29 October 2020
Orbit: 824 x 835 km, 98.4° (Epoch: 26 November)

Event Time Altitude Azimuth Distance (km) Brightness Sun altitude
Rises 12:35:32 0° 8° (N) 3,389 6.9 -19.2°
Reaches altitude 10° 12:37:55 10° 5° (N) 2,451 6.1 -18.7°
Maximum altitude 12:43:16 63° 285° (WNW) 928 3.6 -17.6°
Drops below altitude 10° 12:48:36 10° 206° (SSW) 2,435 5.9 -16.5°
Sets 12:50:58 0° 203° (SSW) 3,364 6.7 -16.0°
